This is the latest recevied weather packets stored in our database for station/object KB3HLL. If no packets are shown the sender has not sent any weather packets the latest 10 day(s).
| Time | Temp. | Humidity | Pressure | Rain* | Wind** | Luminosity | Snow |
|---|---|---|---|---|---|---|---|
| 1777834578 | 10.56° C | 49% | 1013.4 hPa | 0 mm | - | 700 W/m² | - |
| 1777834278 | 10.56° C | 50% | 1013.1 hPa | 0 mm | - | 299 W/m² | - |
| 1777833979 | 10.56° C | 51% | 1013.1 hPa | 0 mm | - | 739 W/m² | - |
| 1777833678 | 11.11° C | 49% | 1013.4 hPa | 0 mm | - | 682 W/m² | - |
| 1777833377 | 11.11° C | 50% | 1013.5 hPa | 0 mm | - | 933 W/m² | - |
| 1777833079 | 11.11° C | 49% | 1013.4 hPa | 0 mm | - | 958 W/m² | - |
| 1777832779 | 11.11° C | 50% | 1013.4 hPa | 0 mm | - | 342 W/m² | - |
| 1777832477 | 11.11° C | 49% | 1013.4 hPa | 0 mm | - | 328 W/m² | - |
| 1777832178 | 11.11° C | 49% | 1013.4 hPa | 0 mm | - | 304 W/m² | - |
| 1777831877 | 10.56° C | 48% | 1013.5 hPa | 0 mm | - | 578 W/m² | - |
| 1777831578 | 10.56° C | 49% | 1013.6 hPa | 0 mm | - | 464 W/m² | - |
| 1777831278 | 10° C | 50% | 1013.5 hPa | 0 mm | - | 421 W/m² | - |
| 1777830978 | 10° C | 51% | 1013.6 hPa | 0 mm | - | 518 W/m² | - |
| 1777830678 | 10° C | 52% | 1013.6 hPa | 0 mm | - | 411 W/m² | - |
| 1777830378 | 10° C | 50% | 1013.7 hPa | 0 mm | - | 411 W/m² | - |
| 1777830078 | 10° C | 50% | 1013.7 hPa | 0 mm | - | 1145 W/m² | - |
| 1777829778 | 9.44° C | 51% | 1013.8 hPa | 0 mm | - | 1046 W/m² | - |
| 1777829478 | 9.44° C | 51% | 1013.9 hPa | 0 mm | - | 944 W/m² | - |
| 1777829177 | 9.44° C | 52% | 1013.8 hPa | 0 mm | - | 1083 W/m² | - |
| 1777828878 | 9.44° C | 51% | 1013.9 hPa | 0 mm | - | 1035 W/m² | - |
| 1777828578 | 8.89° C | 53% | 1013.8 hPa | 0 mm | - | 1076 W/m² | - |
| 1777828277 | 8.89° C | 52% | 1014 hPa | 0 mm | - | 1113 W/m² | - |
| 1777827977 | 8.89° C | 53% | 1014 hPa | 0 mm | - | 847 W/m² | - |
| 1777827678 | 9.44° C | 53% | 1014.2 hPa | 0 mm | - | 301 W/m² | - |
| 1777827377 | 10° C | 52% | 1014 hPa | 0 mm | - | 485 W/m² | - |
* Rain latest hour (hover to see other rain measurements)
** Current wind speed in m/s (hover to see current wind gust speed)